TimeMDT,TemperatureF,Dew PointF,Humidity,Sea Level PressureIn,VisibilityMPH,Wind Direction,Wind SpeedMPH,Gust SpeedMPH,PrecipitationIn,Events,Conditions,WindDirDegrees,DateUTC
12:51 AM,69.1,57.0,65,30.01,8.0,ENE,27.6,33.4,N/A,,Clear,60,2013-07-09 06:51:00
1:51 AM,68.0,57.9,70,30.00,8.0,NE,27.6,-,N/A,,Clear,50,2013-07-09 07:51:00
2:51 AM,66.0,59.0,78,29.98,8.0,NE,29.9,-,N/A,,Clear,50,2013-07-09 08:51:00
3:51 AM,64.9,59.0,81,30.01,8.0,ENE,17.3,-,N/A,,Clear,60,2013-07-09 09:51:00
4:51 AM,64.0,59.0,84,30.00,8.0,ENE,21.9,-,N/A,,Clear,60,2013-07-09 10:51:00
5:51 AM,64.0,59.0,84,30.01,7.0,NE,21.9,-,N/A,,Clear,40,2013-07-09 11:51:00
6:51 AM,64.9,59.0,81,30.02,6.0,NE,18.4,-,N/A,,Haze,50,2013-07-09 12:51:00
7:51 AM,69.1,59.0,70,30.04,7.0,NE,13.8,-,N/A,,Clear,50,2013-07-09 13:51:00
8:51 AM,72.0,59.0,64,30.04,7.0,ENE,13.8,-,N/A,,Clear,70,2013-07-09 14:51:00
9:51 AM,75.0,57.0,53,30.04,8.0,ENE,9.2,-,N/A,,Clear,70,2013-07-09 15:51:00
10:51 AM,79.0,55.0,44,30.04,8.0,ENE,13.8,-,N/A,,Clear,70,2013-07-09 16:51:00
11:51 AM,81.0,55.0,41,30.03,8.0,East,15.0,21.9,N/A,,Clear,80,2013-07-09 17:51:00
12:51 PM,82.9,53.1,36,30.02,8.0,ENE,13.8,-,N/A,,Clear,60,2013-07-09 18:51:00
1:51 PM,84.0,53.1,34,30.00,8.0,East,15.0,25.3,N/A,,Clear,80,2013-07-09 19:51:00
2:51 PM,87.1,53.1,31,29.98,8.0,East,16.1,21.9,N/A,,Partly Cloudy,80,2013-07-09 20:51:00
3:51 PM,84.9,52.0,32,29.96,8.0,ENE,21.9,26.5,N/A,,Clear,60,2013-07-09 21:51:00
4:06 PM,86.0,51.1,30,30.21,1.8,East,19.6,27.6,N/A,,Haze,80,2013-07-09 22:06:00
4:21 PM,86.0,51.1,30,30.20,8.0,NE,16.1,28.8,N/A,,Clear,50,2013-07-09 22:21:00
4:51 PM,84.9,51.1,31,29.94,8.0,East,19.6,28.8,N/A,,Clear,80,2013-07-09 22:51:00
5:51 PM,84.0,51.1,32,29.94,8.0,East,20.7,28.8,N/A,,Clear,80,2013-07-09 23:51:00
6:51 PM,82.9,51.1,33,29.94,8.0,ENE,20.7,24.2,N/A,,Clear,70,2013-07-10 00:51:00
7:51 PM,81.0,54.0,39,29.94,8.0,East,25.3,-,N/A,,Clear,80,2013-07-10 01:51:00
8:51 PM,79.0,55.0,44,29.95,9.0,East,20.7,-,N/A,,Clear,80,2013-07-10 02:51:00
9:51 PM,77.0,57.0,50,29.96,9.0,East,20.7,-,N/A,,Clear,80,2013-07-10 03:51:00
10:51 PM,75.0,57.9,55,29.98,9.0,ENE,24.2,-,N/A,,Clear,70,2013-07-10 04:51:00
11:51 PM,73.0,57.9,59,29.99,9.0,ENE,20.7,-,N/A,,Clear,60,2013-07-10 05:51:00